Flag for Germany Weather past 2 weeks in Mönchengladbach, North Rhine-Westphalia, Germany

Now
48 °F

Passing clouds.


Feels Like: 42 °F
Forecast: 36 / 45 °F
Wind: 16 mph from Southwest

Location: Monchengladbach Airport

Current Time: Mar 2, 2015 at 2:21:18 PM

Latest Report: Mar 2, 2015 at 1:50 PM


Visibility: N/A

Pressure: 29.68 "Hg

Humidity: 50%

Dew point: 30 °F

Location of MönchengladbachLocation

Historic Weather in Mönchengladbach — Graph

°F

Mönchengladbach temperature yesterday

Maximum temperature yesterday: 52 °F (at 10:20 AM)
Minimum temperature yesterday: 45 °F (at 7:50 AM)
Average temperature yesterday: 50 °F

Past Weeks' High & Low Weather Summary

 TemperatureHumidityPressure
High52 °F (Mar 1, 10:20 AM)100% (Feb 17, 7:50 AM)30.77 "Hg (Feb 17, 7:50 AM)
Low30 °F (Feb 28, 7:20 AM)50% (Feb 28, 4:50 PM)29.45 "Hg (Feb 21, 8:20 AM)
Average42 °F80%29.99 "Hg
* Reported Feb 15 1:20 PM — Mar 2 1:20 PM, Mönchengladbach, Weather by CustomWeather, © 2015

Note: Actual official high and low records may vary slightly from our data, if they occured in-between our weather recording intervals... More about our weather records

Advertising

Mönchengladbach weather history for previous 24 hours

 ConditionsComfort  
Time TempWeatherWind HumidityBarometerVisibility
1:20 PM
Mon, Mar 2
48 °FPassing clouds.14 mph54%29.68 "HgN/A
12:50 PM48 °FPassing clouds.13 mph50%29.71 "HgN/A
12:20 PM46 °FPassing clouds.14 mph62%29.68 "HgN/A
11:50 AM46 °FPassing clouds.15 mph53%29.68 "HgN/A
11:20 AM46 °FPassing clouds.13 mph57%29.68 "HgN/A
10:50 AM45 °FPassing clouds.13 mph66%29.68 "HgN/A
10:20 AM45 °FPassing clouds.12 mph66%29.68 "HgN/A
9:50 AM43 °FPassing clouds.14 mph71%29.65 "HgN/A
9:20 AM43 °FSunny.9 mph66%29.65 "Hg10 mi
8:50 AM41 °FPassing clouds.9 mph70%29.65 "HgN/A
8:20 AM41 °FPassing clouds.8 mph70%29.62 "HgN/A
7:50 AM41 °FPassing clouds.7 mph70%29.62 "HgN/A
8:20 PM
Sun, Mar 1
46 °FPassing clouds.9 mph76%29.59 "HgN/A
7:50 PM46 °FPassing clouds.9 mph76%29.59 "HgN/A
7:20 PM48 °FPassing clouds.10 mph71%29.59 "HgN/A
6:50 PM48 °FPassing clouds.10 mph71%29.62 "HgN/A
6:20 PM48 °FScattered showers. Passing clouds.10 mph76%29.62 "HgN/A
5:50 PM48 °FPassing clouds.15 mph76%29.62 "HgN/A
5:20 PM50 °FPassing clouds.14 mph58%29.59 "HgN/A
4:20 PM50 °FPassing clouds.20 mph67%29.62 "HgN/A
3:50 PM52 °FPassing clouds.13 mph58%29.59 "HgN/A
3:20 PM50 °FPassing clouds.17 mph62%29.59 "HgN/A
2:50 PM50 °FPassing clouds.20 mph62%29.62 "HgN/A
2:20 PM52 °FPassing clouds.16 mph58%29.59 "HgN/A
Weather by CustomWeather, © 2015

See weather overviewHow to use our weather pages